[[{"header":{"parameterUnit":"m.s-1","parameterCategory":2,"la1":30.2991,"la2":30.254,"lo1":-89.0895,"lo2":-89.0444,"dy":0.0017,"dx":0.0017,"nx":28,"ny":28,"refTime":"2024-10-11T03:00:00:Z","depth":"0","parameterNumber":2,"parameterNumberName":"U-component_of_CURRENTS"},"data":[0,0,0,0,0,0,0,0,0,0,0,0,0,0,0,0,0,0,0,0,0,0,0,0,0,0,0,0,0,0,0,0,0,0,0,0,0,0,0,0,0,0,0,0,0,0,0,0,0,0,0,0,0,0,0,0,0,0,0.3025,0.3025,0,0.2973,0.2972,0.2971,0.295,0.2951,0.2951,0.2952,0.2943,0.2942,0.2942,0,0,0,0,0,0,0,0,0,0,0,0,0,0.3072,0.307,0.3025,0.3025,0.3025,0.2973,0.2972,0.2971,0.295,0.2951,0.2952,0.2952,0.2944,0.2943,0.2941,0,0,0,0,0,0,0,0,0,0,0,0,0,0.3033,0.307,0.3025,0.3013,0.3012,0.2974,0.2972,0.297,0.295,0.2951,0.2952,0.2953,0.2944,0.2943,0.2941,0.2912,0,0,0.2937,0.2937,0,0,0,0,0,0,0,0,0.3035,0.303,0.3015,0.3014,0.3013,0.2975,0.2985,0.2955,0.2949,0.2967,0.2952,0.2953,0.2961,0.2958,0.2937,0.2912,0.2911,0.2937,0.2936,0.2936,0.2935,0,0,0,0,0,0,0,0.3038,0.3032,0.2998,0.3015,0.3014,0.2999,0.2994,0.2979,0.2955,0.2965,0.2965,0.2969,0.296,0.2938,0.2937,0.2911,0.2937,0.2936,0.2935,0.2935,0.2949,0.2951,0,0,0,0,0,0,0.3057,0.3035,0.3,0.2997,0.3034,0.2998,0.2992,0.2981,0.2954,0.2952,0.2968,0.2968,0.294,0.2938,0.2936,0.3007,0.2936,0.2935,0.2934,0.2948,0.295,0.2951,0,0,0,0,0,0,0.3058,0.3054,0.3002,0.3021,0.3014,0.2997,0.2983,0.2979,0.2966,0.2957,0.2955,0.2962,0.294,0.2938,0.2942,0.3002,0.2934,0.2933,0.2947,0.2949,0.295,0.3079,0,0,0,0,0,0,0.3059,0.3054,0.3054,0.3022,0.3014,0.3002,0.2983,0.2978,0.297,0.2969,0.2951,0.295,0.2941,0.2944,0.2941,0.2999,0.2932,0.2945,0.2948,0.295,0.3073,0.3085,0.3095,0,0,0,0,0,0.3061,0.3074,0.3053,0.305,0.3013,0.3003,0.2997,0.2984,0.2969,0.2972,0.296,0.2951,0.2957,0.2943,0.2939,0.2999,0.2944,0.2947,0.295,0.3068,0.3083,0.3095,0,0,0,0,0,0,0.3108,0.3072,0.3049,0.3053,0.3035,0.3003,0.3015,0.2985,0.2971,0.2975,0.2953,0.2952,0.2981,0.2958,0.2944,0.3007,0.2954,0.2956,0.3046,0.3059,0.307,0.3087,0.2931,0,0,0,0,0,0.3112,0.3107,0.3071,0.3078,0.3073,0.3035,0.3029,0.3011,0.2996,0.2989,0.2975,0.297,0.2984,0.2996,0.2989,0.3014,0.3052,0.3051,0.3062,0.3072,0.3082,0.321,0.3236,0.296,0.296,0.296,0,0,0.3141,0.3116,0.3118,0.3086,0.3073,0.3083,0.3034,0.3033,0.3053,0.2992,0.3018,0.2998,0.2994,0.3033,0.3046,0.3028,0.317,0.3075,0.3084,0.3088,0.3216,0.3244,0.3268,0.2962,0.2961,0.2961,0,0,0.3201,0.3166,0.3184,0.3168,0.3147,0.3124,0.3126,0.309,0.3091,0.3097,0.3075,0.3088,0.3088,0.311,0.3122,0.3181,0.3216,0.3182,0.3266,0.3392,0.3417,0.344,0.3533,0.3562,0.3199,0.3199,0.3199,0,0.3239,0.3242,0.3193,0.3205,0.3216,0.315,0.3183,0.3171,0.3142,0.3174,0.313,0.3165,0.3137,0.3227,0.3235,0.3213,0.3279,0.3224,0.3413,0.3436,0.3457,0.3546,0.3577,0.3206,0.3205,0.3204,0.3204,0,0.3307,0.331,0.3328,0.3319,0.3321,0.3336,0.3316,0.3325,0.3308,0.3307,0.3368,0.3324,0.3358,0.335,0.3303,0.3437,0.3434,0.3411,0.3392,0.3494,0.3579,0.361,0.3215,0.3213,0.3211,0.3209,0,0,0.3394,0.3379,0.3385,0.3392,0.338,0.3383,0.3444,0.3485,0.3527,0.3519,0.3599,0.3596,0.3566,0.3571,0.3527,0.3602,0.3776,0.3566,0.3569,0.3679,0.406,0.3957,0.398,0.381,0.3815,0.382,0.4065,0,0.3467,0.3504,0.3488,0.354,0.356,0.3545,0.3595,0.3625,0.364,0.369,0.3705,0.3736,0.3659,0.3657,0.3737,0.3744,0.386,0.371,0.3925,0.393,0.3847,0.4013,0.3771,0.3961,0.4095,0.41,0.4104,0,0.3541,0.355,0.3612,0.3632,0.3644,0.3672,0.3744,0.3775,0.385,0.3867,0.3937,0.3918,0.4003,0.3905,0.4083,0.4,0.4051,0.4066,0.4077,0.3956,0.3885,0.3877,0.4011,0.3853,0.415,0.4146,0.4143,0,0.3602,0.3638,0.3686,0.3692,0.3712,0.3763,0.3782,0.3847,0.3885,0.3977,0.4017,0.4124,0.415,0.4266,0.4265,0.4212,0.4454,0.4397,0.438,0.4373,0.419,0.4156,0.421,0.4587,0.4586,0.4586,0.4585,0,0.3666,0.3698,0.3711,0.373,0.3787,0.3801,0.3872,0.3911,0.3983,0.4036,0.4097,0.4153,0.4243,0.4355,0.4382,0.4474,0.4585,0.4438,0.4453,0.4223,0.4191,0.4057,0.3995,0.4595,0.4593,0.4591,0.4589,0,0.3694,0.3713,0.3754,0.3793,0.3807,0.3841,0.3888,0.3925,0.4007,0.4083,0.4119,0.4234,0.4365,0.4455,0.4614,0.4603,0.4558,0.4712,0.4409,0.4382,0.4167,0.412,0.41,0.399,0.4756,0.4755,0.4755,0,0.369,0.372,0.3773,0.3782,0.3793,0.3837,0.3855,0.3928,0.3963,0.4111,0.4145,0.4304,0.4384,0.4593,0.4592,0.4704,0.455,0.4539,0.4378,0.4163,0.4126,0.3973,0.387,0.4202,0.4197,0.4193,0.4189,0,0.3664,0.3696,0.3718,0.3746,0.3769,0.3796,0.3833,0.3867,0.3952,0.4028,0.4128,0.4222,0.4387,0.4365,0.4486,0.45,0.4266,0.4455,0.4335,0.3792,0.3532,0.3426,0.4017,0.4152,0.4156,0.4159,0.4161,0.4162,0.3615,0.3621,0.3646,0.3665,0.3692,0.3706,0.3691,0.3742,0.379,0.3846,0.4026,0.4096,0.4126,0.4238,0.4237,0.3997,0.4053,0.3835,0.3834,0.3729,0.3491,0.3981,0.4055,0.4058,0.406,0.4063,0.4065,0,0.3495,0.3513,0.354,0.3543,0.3534,0.3593,0.3617,0.3572,0.3559,0.3697,0.3774,0.3781,0.3738,0.3725,0.3538,0.3392,0.3244,0.3272,0.2993,0.2956,0.3486,0.3321,0.3111,0.3111,0.3111,0.3112,0.3112,0.3112,0.3417,0.3394,0.3418,0.3361,0.3372,0.33,0.3292,0.3256,0.3306,0.3268,0.3268,0.3366,0.3334,0.3185,0.2934,0.2862,0.2655,0.2512,0.2586,0.2917,0.2967,0.3015,0.2845,0.2538,0.2538,0.187,0.1865,0.1861]},{"header":{"parameterUnit":"m.s-1","parameterCategory":2,"la1":30.2991,"la2":30.254,"lo1":-89.0895,"lo2":-89.0444,"dy":0.0017,"dx":0.0017,"nx":28,"ny":28,"refTime":"2024-10-11T03:00:00:Z","depth":"0","parameterNumber":3,"parameterNumberName":"V-component_of_CURRENTS"},"data":[0,0,0,0,0,0,0,0,0,0,0,0,0,0,0,0,0,0,0,0,0,0,0,0,0,0,0,0,0,0,0,0,0,0,0,0,0,0,0,0,0,0,0,0,0,0,0,0,0,0,0,0,0,0,0,0,0,0,-0.0117,-0.0118,0,-0.0178,-0.0178,-0.0179,-0.0238,-0.0239,-0.024,-0.0242,-0.0315,-0.0316,-0.0317,0,0,0,0,0,0,0,0,0,0,0,0,0,-0.005,-0.005,-0.0117,-0.0118,-0.0119,-0.0178,-0.0178,-0.0179,-0.0238,-0.0239,-0.0241,-0.0242,-0.0315,-0.0316,-0.0317,0,0,0,0,0,0,0,0,0,0,0,0,0,-0.0088,-0.0051,-0.0117,-0.0158,-0.0163,-0.0177,-0.0178,-0.0179,-0.0238,-0.024,-0.0241,-0.0243,-0.0315,-0.0316,-0.0318,-0.0295,0,0,-0.0322,-0.0323,0,0,0,0,0,0,0,0,-0.0086,-0.0091,-0.0151,-0.0156,-0.0161,-0.0205,-0.0182,-0.0219,-0.0238,-0.0206,-0.0242,-0.0243,-0.028,-0.0285,-0.0288,-0.0298,-0.0301,-0.0322,-0.0323,-0.0324,-0.0324,0,0,0,0,0,0,0,-0.0083,-0.0088,-0.0138,-0.0152,-0.0158,-0.0173,-0.018,-0.0189,-0.0232,-0.0209,-0.0214,-0.0225,-0.0283,-0.0287,-0.029,-0.0302,-0.0322,-0.0323,-0.0324,-0.0325,-0.034,-0.0339,0,0,0,0,0,0,-0.008,-0.0086,-0.0136,-0.014,-0.013,-0.0173,-0.018,-0.0187,-0.0231,-0.0241,-0.0224,-0.0228,-0.0283,-0.0289,-0.0293,-0.0298,-0.0324,-0.0325,-0.0326,-0.034,-0.034,-0.0339,0,0,0,0,0,0,-0.0079,-0.0084,-0.0134,-0.0117,-0.0125,-0.0173,-0.0179,-0.0187,-0.0197,-0.0243,-0.0252,-0.0227,-0.0285,-0.0291,-0.0306,-0.0301,-0.0326,-0.0327,-0.0341,-0.034,-0.0339,-0.0289,0,0,0,0,0,0,-0.0076,-0.0083,-0.0078,-0.0117,-0.0126,-0.0134,-0.0178,-0.0187,-0.0203,-0.0208,-0.0248,-0.0257,-0.0286,-0.0304,-0.0308,-0.0303,-0.0328,-0.0341,-0.034,-0.0339,-0.0292,-0.0287,-0.0283,0,0,0,0,0,-0.0073,-0.0061,-0.0077,-0.0083,-0.012,-0.0134,-0.0138,-0.0176,-0.0201,-0.0193,-0.0229,-0.0256,-0.0301,-0.0304,-0.0309,-0.0305,-0.0342,-0.0341,-0.034,-0.0294,-0.0288,-0.0283,0,0,0,0,0,0,-0.0027,-0.0067,-0.0086,-0.0086,-0.0106,-0.0145,-0.0143,-0.0169,-0.019,-0.0198,-0.0245,-0.0254,-0.0268,-0.0287,-0.029,-0.0307,-0.0327,-0.0327,-0.029,-0.0285,-0.0281,-0.0238,-0.0329,0,0,0,0,0,-0.0014,-0.0015,-0.0055,-0.0051,-0.0061,-0.0099,-0.0109,-0.0133,-0.0162,-0.0173,-0.0203,-0.0236,-0.0263,-0.0276,-0.0297,-0.0298,-0.0271,-0.03,-0.0295,-0.0292,-0.026,-0.0209,-0.0197,-0.0335,-0.0335,-0.0335,0,0,0.0001,-0.0017,-0.0021,-0.0041,-0.0061,-0.0063,-0.0108,-0.0116,-0.0117,-0.0176,-0.0181,-0.0218,-0.026,-0.027,-0.0278,-0.0288,-0.0241,-0.029,-0.0287,-0.0256,-0.0207,-0.0193,-0.018,-0.0335,-0.0335,-0.0335,0,0,0.0031,0.0019,0.0023,0.0015,-0.001,-0.0029,-0.003,-0.0064,-0.0078,-0.0088,-0.0138,-0.016,-0.0199,-0.0223,-0.0243,-0.022,-0.0219,-0.0243,-0.0186,-0.0139,-0.0126,-0.0114,-0.0067,-0.0051,-0.0241,-0.0241,-0.0241,0,0.0046,0.0047,0.0025,0.0031,0.0026,-0.0011,-0.0005,-0.0015,-0.0049,-0.0049,-0.0083,-0.0125,-0.017,-0.0174,-0.0183,-0.0208,-0.0179,-0.0206,-0.013,-0.0118,-0.0107,-0.0061,-0.0044,-0.0239,-0.0239,-0.0239,-0.024,0,0.0074,0.0077,0.0084,0.0076,0.0078,0.008,0.0059,0.0063,0.0036,0.0021,0.0015,-0.0036,-0.0054,-0.0089,-0.0137,-0.0094,-0.0099,-0.0129,-0.0137,-0.0089,-0.0045,-0.0029,-0.0235,-0.0236,-0.0237,-0.0237,0,0,0.0068,0.0095,0.0094,0.0105,0.01,0.0104,0.012,0.0121,0.0146,0.0112,0.0146,0.0076,0.0061,0.004,-0.0015,0.0006,0.0082,-0.0029,-0.0027,0.0031,0.02,0.0167,0.0181,0.0067,0.007,0.0072,0.0199,0,0.0081,0.0115,0.0123,0.0152,0.0158,0.0158,0.0186,0.0193,0.0191,0.0224,0.0186,0.0194,0.0108,0.0104,0.0114,0.01,0.0128,0.0051,0.0136,0.0139,0.0114,0.02,0.0188,0.0298,0.0214,0.0217,0.0219,0,0.0074,0.0104,0.0139,0.0192,0.0197,0.0221,0.0267,0.029,0.033,0.0337,0.035,0.0332,0.0356,0.0275,0.0316,0.0274,0.025,0.0231,0.0235,0.0207,0.0137,0.0236,0.033,0.0178,0.0244,0.0242,0.024,0,0.0052,0.0103,0.0139,0.0152,0.0211,0.0239,0.0274,0.0318,0.0368,0.0424,0.0479,0.0491,0.0526,0.0513,0.0464,0.0407,0.0521,0.044,0.0391,0.0388,0.0399,0.0392,0.0372,0.0486,0.0485,0.0485,0.0485,0,0.0037,0.006,0.0138,0.0155,0.0228,0.0256,0.0339,0.0377,0.0463,0.0559,0.0546,0.0634,0.059,0.0631,0.0559,0.0553,0.0608,0.0444,0.0435,0.0412,0.0405,0.0287,0.0183,0.049,0.0489,0.0488,0.0487,0,-0.0004,0.0036,0.0091,0.018,0.0214,0.0267,0.0394,0.0468,0.0537,0.0673,0.0708,0.0783,0.0854,0.0804,0.0807,0.0693,0.0595,0.064,0.0615,0.0599,0.0372,0.0271,0.0295,0.0233,0.0623,0.0624,0.0624,0,-0.0018,0.0003,0.0119,0.0179,0.0223,0.0315,0.0398,0.0491,0.0587,0.0771,0.0854,0.096,0.1066,0.1064,0.0911,0.0833,0.0657,0.07,0.0571,0.0398,0.028,0.0218,0.016,0.0609,0.0609,0.0609,0.0609,0,-0.0023,0.0018,0.0089,0.021,0.0302,0.0413,0.0537,0.0628,0.0769,0.0915,0.1116,0.1224,0.1228,0.118,0.1029,0.0912,0.058,0.0693,0.0541,0.0303,0.0217,0.014,0.0477,0.061,0.061,0.061,0.061,0.061,-0.0001,0.0052,0.0156,0.0271,0.038,0.0514,0.0621,0.0781,0.0972,0.1234,0.1307,0.1547,0.1394,0.1214,0.1007,0.0596,0.0598,0.0443,0.0352,0.032,0.0207,0.0538,0.0626,0.0626,0.0626,0.0626,0.0626,0,0.005,0.0114,0.0218,0.0368,0.0495,0.0537,0.0729,0.0866,0.1115,0.1403,0.1616,0.1741,0.1487,0.1177,0.0634,0.0317,0.0189,0.0138,0.0041,0.0007,0.0339,0.0279,0.0264,0.0264,0.0265,0.0265,0.0265,0.0265,0.0089,0.0189,0.0241,0.0446,0.0551,0.0724,0.0837,0.1057,0.1295,0.1671,0.1911,0.2076,0.1828,0.0831,0.0142,-0.0027,-0.0254,-0.0284,-0.0384,-0.0201,-0.0181,-0.0161,-0.0242,-0.0365,-0.0366,-0.0674,-0.0677,-0.068]}],[{"header":{"parameterUnit":"m.s-1","parameterCategory":2,"la1":30.2991,"la2":30.254,"lo1":-89.0895,"lo2":-89.0444,"dy":0.0017,"dx":0.0017,"nx":28,"ny":28,"refTime":"2024-10-11T03:00:00:Z","depth":"2","parameterNumber":2,"parameterNumberName":"U-component_of_CURRENTS"},"data":[0,0,0,0,0,0,0,0,0,0,0,0,0,0,0,0,0,0,0,0,0,0,0,0,0,0,0,0,0,0,0,0,0,0,0,0,0,0,0,0,0,0,0,0,0,0,0,0,0,0,0,0,0,0,0,0,0,0,0.2058,0.2058,0,0.2087,0.2088,0.2088,0.2135,0.2136,0.2136,0.2137,0.2145,0.2144,0.2144,0,0,0,0,0,0,0,0,0,0,0,0,0,0.2075,0.2074,0.2057,0.2058,0.2058,0.2087,0.2088,0.2088,0.2135,0.2136,0.2137,0.2138,0.2145,0.2144,0.2144,0,0,0,0,0,0,0,0,0,0,0,0,0,0.2082,0.2074,0.2057,0.2085,0.2088,0.2087,0.2088,0.2088,0.2134,0.2136,0.2137,0.2138,0.2145,0.2145,0.2144,0.2113,0,0,0.2141,0.2141,0,0,0,0,0,0,0,0,0.2082,0.2082,0.2081,0.2083,0.2086,0.2109,0.2097,0.2095,0.2134,0.2117,0.2137,0.2139,0.213,0.213,0.2133,0.2113,0.2114,0.2141,0.214,0.214,0.214,0,0,0,0,0,0,0,0.2081,0.2081,0.2069,0.2081,0.2084,0.2108,0.211,0.2097,0.2115,0.2118,0.2122,0.2125,0.2131,0.2134,0.2134,0.2114,0.2141,0.214,0.214,0.2139,0.2191,0.2193,0,0,0,0,0,0,0.2074,0.208,0.2068,0.207,0.2087,0.2106,0.2109,0.21,0.2116,0.212,0.2124,0.2127,0.2135,0.2135,0.2134,0.2191,0.214,0.2139,0.2139,0.2189,0.2191,0.2193,0,0,0,0,0,0,0.2074,0.2072,0.2067,0.2077,0.2078,0.2104,0.2095,0.21,0.2123,0.212,0.2124,0.2143,0.2136,0.2135,0.2153,0.2188,0.2139,0.2138,0.2187,0.219,0.2192,0.2246,0,0,0,0,0,0,0.2074,0.2072,0.2076,0.2076,0.2077,0.2091,0.2094,0.21,0.2122,0.2127,0.2138,0.2139,0.2137,0.2155,0.2152,0.2186,0.2137,0.2184,0.2188,0.2191,0.2241,0.225,0.2257,0,0,0,0,0,0.2075,0.2081,0.2075,0.2075,0.2077,0.2092,0.2096,0.2119,0.2121,0.2142,0.2151,0.214,0.2177,0.2155,0.2152,0.2186,0.2183,0.2187,0.2191,0.2238,0.2248,0.2257,0,0,0,0,0,0,0.2094,0.2085,0.208,0.2084,0.2095,0.2101,0.2116,0.2125,0.2146,0.2153,0.2147,0.215,0.2185,0.2175,0.2151,0.2216,0.2184,0.2187,0.2221,0.223,0.2238,0.23,0.2137,0,0,0,0,0,0.2094,0.2099,0.2093,0.2101,0.2099,0.2106,0.2117,0.2133,0.2145,0.2156,0.2158,0.2171,0.2195,0.2204,0.2216,0.2233,0.227,0.226,0.2268,0.2275,0.2326,0.2403,0.2423,0.2207,0.2207,0.2207,0,0,0.21,0.2101,0.2101,0.2106,0.2108,0.2126,0.2117,0.214,0.2162,0.215,0.2177,0.2192,0.2207,0.2243,0.2258,0.2241,0.2352,0.228,0.2286,0.2335,0.241,0.2431,0.245,0.221,0.221,0.2209,0,0,0.2123,0.2112,0.2124,0.2133,0.2148,0.2155,0.2164,0.2172,0.2182,0.2212,0.2217,0.2276,0.2272,0.2319,0.2336,0.2395,0.2391,0.2374,0.2461,0.2534,0.2553,0.257,0.2628,0.265,0.2377,0.2377,0.2377,0,0.2147,0.2136,0.2134,0.2152,0.2158,0.2169,0.2184,0.2201,0.2221,0.227,0.2236,0.2326,0.2332,0.2418,0.2447,0.242,0.2442,0.2416,0.2546,0.2564,0.2581,0.2636,0.266,0.238,0.238,0.238,0.2379,0,0.2155,0.2166,0.2173,0.2193,0.2212,0.2224,0.2239,0.2277,0.2292,0.2348,0.243,0.2431,0.2512,0.2504,0.2496,0.2614,0.2583,0.2544,0.2522,0.2606,0.2658,0.2682,0.2385,0.2384,0.2383,0.2382,0,0,0.2165,0.2176,0.2182,0.2197,0.2225,0.2246,0.2297,0.2375,0.246,0.2488,0.2582,0.2645,0.2685,0.2708,0.2684,0.2744,0.2872,0.2696,0.2698,0.2756,0.302,0.2863,0.2873,0.2834,0.2838,0.2842,0.3002,0,0.2172,0.2196,0.2204,0.225,0.2256,0.2299,0.236,0.2457,0.2526,0.2627,0.2685,0.2775,0.274,0.2774,0.2833,0.286,0.294,0.2833,0.2931,0.2936,0.2787,0.2898,0.2646,0.2755,0.3025,0.3029,0.3032,0,0.2179,0.2186,0.2211,0.228,0.229,0.2343,0.2467,0.2531,0.2708,0.2767,0.2889,0.293,0.3047,0.2969,0.3112,0.3032,0.3064,0.3073,0.3078,0.2943,0.2824,0.2719,0.2788,0.3071,0.3068,0.3065,0.3063,0,0.2175,0.2209,0.2223,0.2234,0.2312,0.2368,0.2441,0.2614,0.2695,0.2881,0.2972,0.3099,0.3145,0.3219,0.3248,0.3199,0.3367,0.3301,0.3202,0.319,0.3009,0.2972,0.3445,0.3445,0.3445,0.3444,0.3444,0,0.218,0.2206,0.2229,0.2243,0.2329,0.2384,0.2524,0.2642,0.2788,0.2937,0.3049,0.3138,0.321,0.3292,0.3317,0.3328,0.344,0.327,0.324,0.3014,0.2977,0.3273,0.3251,0.345,0.3449,0.3448,0.3447,0,0.2212,0.2203,0.225,0.2306,0.2337,0.2422,0.256,0.2667,0.2815,0.2982,0.3045,0.3202,0.3334,0.3382,0.3494,0.3399,0.3441,0.342,0.3136,0.3068,0.3204,0.3183,0.3358,0.3354,0.3351,0.3348,0.3346,0,0.2237,0.2255,0.2309,0.235,0.2385,0.2487,0.2569,0.2691,0.2779,0.3022,0.3084,0.3265,0.3319,0.3394,0.3352,0.3367,0.345,0.3089,0.2962,0.3252,0.3206,0.319,0.3173,0.2751,0.2744,0.2739,0.2734,0,0.2318,0.2338,0.2374,0.2417,0.2482,0.254,0.2639,0.2662,0.2817,0.2904,0.3021,0.3079,0.3205,0.307,0.3066,0.3042,0.3056,0.2969,0.34,0.2777,0.2683,0.2636,0.264,0.2683,0.2688,0.2692,0.2695,0.2697,0.2409,0.244,0.2459,0.2496,0.2555,0.2537,0.2522,0.2575,0.2601,0.2648,0.2795,0.2774,0.2826,0.2676,0.2621,0.26,0.2809,0.2646,0.2664,0.2688,0.2554,0.2455,0.239,0.2393,0.2396,0.2398,0.24,0,0.2466,0.2482,0.2529,0.2511,0.2494,0.2544,0.2527,0.2435,0.2356,0.242,0.2415,0.2178,0.2092,0.2222,0.2101,0.2056,0.2042,0.1979,0.1952,0.2004,0.205,0.1883,0.1542,0.1539,0.1537,0.1534,0,0,0.2503,0.2504,0.2464,0.2399,0.2405,0.2287,0.222,0.2118,0.2074,0.1905,0.1851,0.1941,0.208,0.1749,0.1728,0.1624,0.1792,0.1555,0.2248,0.2267,0.2309,0.2445,0.2248,0,0,0,0,0]},{"header":{"parameterUnit":"m.s-1","parameterCategory":2,"la1":30.2991,"la2":30.254,"lo1":-89.0895,"lo2":-89.0444,"dy":0.0017,"dx":0.0017,"nx":28,"ny":28,"refTime":"2024-10-11T03:00:00:Z","depth":"2","parameterNumber":3,"parameterNumberName":"V-component_of_CURRENTS"},"data":[0,0,0,0,0,0,0,0,0,0,0,0,0,0,0,0,0,0,0,0,0,0,0,0,0,0,0,0,0,0,0,0,0,0,0,0,0,0,0,0,0,0,0,0,0,0,0,0,0,0,0,0,0,0,0,0,0,0,0.0122,0.0121,0,0.0057,0.0057,0.0056,0.0003,0.0003,0.0003,0.0002,-0.0055,-0.0056,-0.0057,0,0,0,0,0,0,0,0,0,0,0,0,0,0.0149,0.0149,0.0122,0.0121,0.012,0.0058,0.0057,0.0056,0.0003,0.0003,0.0002,0.0002,-0.0054,-0.0056,-0.0057,0,0,0,0,0,0,0,0,0,0,0,0,0,0.0115,0.0149,0.0122,0.0088,0.0085,0.0058,0.0057,0.0055,0.0003,0.0003,0.0002,0.0002,-0.0054,-0.0056,-0.0057,-0.0057,0,0,-0.0063,-0.0063,0,0,0,0,0,0,0,0,0.0117,0.0114,0.0094,0.009,0.0086,0.0039,0.0045,0.0019,0.0004,0.0032,0.0002,0.0001,-0.0021,-0.0025,-0.0039,-0.0059,-0.0062,-0.0063,-0.0064,-0.0065,-0.0065,0,0,0,0,0,0,0,0.0119,0.0116,0.0094,0.0093,0.0089,0.0059,0.0054,0.004,0.0008,0.003,0.0026,0.0022,-0.0023,-0.0037,-0.0041,-0.0063,-0.0063,-0.0064,-0.0065,-0.0066,-0.0104,-0.0103,0,0,0,0,0,0,0.0134,0.0119,0.0096,0.0093,0.0103,0.006,0.0054,0.0054,0.0008,0.0001,0.0023,0.002,-0.0034,-0.0039,-0.0043,-0.0049,-0.0065,-0.0066,-0.0067,-0.0104,-0.0104,-0.0103,0,0,0,0,0,0,0.0135,0.0133,0.0099,0.0105,0.0099,0.006,0.006,0.0053,0.0035,0.0003,-0.0004,0.0013,-0.0035,-0.004,-0.0061,-0.0052,-0.0067,-0.0069,-0.0104,-0.0104,-0.0103,-0.0059,0,0,0,0,0,0,0.0136,0.0134,0.0134,0.0107,0.0099,0.0084,0.0061,0.0052,0.0035,0.003,-0.0007,-0.0013,-0.0035,-0.0058,-0.0063,-0.0054,-0.007,-0.0104,-0.0104,-0.0104,-0.0061,-0.0057,-0.0055,0,0,0,0,0,0.0138,0.0141,0.0134,0.0131,0.0102,0.0085,0.0078,0.0047,0.0035,0.0029,0.0001,-0.0012,-0.0061,-0.006,-0.0065,-0.0057,-0.0104,-0.0104,-0.0104,-0.0062,-0.0058,-0.0055,0,0,0,0,0,0,0.0144,0.0136,0.0127,0.0125,0.0108,0.0077,0.0068,0.0051,0.0023,0.0019,-0.0013,-0.0021,-0.0036,-0.0053,-0.0051,-0.0068,-0.0084,-0.0085,-0.005,-0.0047,-0.0044,-0.0014,-0.0071,0,0,0,0,0,0.015,0.0154,0.0136,0.0133,0.0129,0.01,0.0088,0.007,0.0045,0.0032,0.0008,-0.0017,-0.0039,-0.0048,-0.0071,-0.0077,-0.0082,-0.0075,-0.0072,-0.007,-0.005,-0.0054,-0.0049,-0.0103,-0.0103,-0.0103,0,0,0.0149,0.0147,0.0146,0.0135,0.012,0.012,0.0091,0.0077,0.008,0.0032,0.0025,-0.0009,-0.004,-0.0053,-0.006,-0.0065,-0.006,-0.007,-0.0067,-0.0048,-0.0053,-0.0048,-0.0043,-0.0103,-0.0103,-0.0103,0,0,0.0158,0.0152,0.0161,0.0155,0.0143,0.013,0.013,0.0105,0.0096,0.0083,0.0048,0.0022,-0.0007,-0.0028,-0.0042,-0.0034,-0.0048,-0.0044,-0.0,-0.0005,0.0,0.0004,-0.0004,-0.0001,-0.0039,-0.0039,-0.0039,0,0.0158,0.0174,0.0158,0.0168,0.0175,0.014,0.0157,0.014,0.0111,0.0117,0.0089,0.0049,0.0009,0.0007,-0.0002,-0.0025,-0.003,-0.0011,0.0001,0.0005,0.0009,-0.0001,0.0002,-0.0036,-0.0037,-0.0037,-0.0037,0,0.0179,0.0192,0.0198,0.0209,0.0207,0.0215,0.0203,0.0197,0.0183,0.0172,0.0164,0.011,0.0092,0.0065,0.0029,0.0037,0.0023,0.0003,-0.0003,0.0017,0.0005,0.0008,-0.0033,-0.0034,-0.0035,-0.0035,0,0,0.0186,0.0212,0.0215,0.0239,0.0239,0.0244,0.0254,0.0265,0.029,0.0247,0.0283,0.0211,0.0186,0.0168,0.0121,0.0106,0.0102,0.0067,0.0066,0.0069,0.0095,0.0061,0.006,0.0086,0.0087,0.0088,0.0073,0,0.0214,0.0263,0.0262,0.0302,0.0331,0.0317,0.0338,0.0339,0.0338,0.036,0.0312,0.0316,0.0227,0.0222,0.019,0.013,0.0113,0.0109,0.0068,0.0067,0.0042,0.0063,0.0069,0.0055,0.0076,0.0076,0.0076,0,0.0236,0.0277,0.0332,0.0383,0.0393,0.0402,0.0449,0.0464,0.0478,0.0485,0.0474,0.0442,0.0407,0.0337,0.0251,0.0254,0.0182,0.0129,0.0127,0.0088,0.0038,0.0039,0.0059,0.008,0.008,0.0079,0.0079,0,0.0268,0.0322,0.0379,0.0394,0.0438,0.0455,0.0474,0.0496,0.0544,0.0568,0.0611,0.0557,0.0549,0.0454,0.0317,0.0293,0.0235,0.0189,0.0095,0.0091,0.0086,0.008,0.0146,0.0146,0.0146,0.0146,0.0146,0,0.0302,0.0339,0.0396,0.0424,0.0493,0.0503,0.0575,0.0586,0.0647,0.0735,0.0677,0.0736,0.0579,0.0521,0.0381,0.0247,0.028,0.0117,0.0092,0.0098,0.0094,0.0107,0.0103,0.0146,0.0146,0.0146,0.0146,0,0.0305,0.0346,0.0411,0.0479,0.0504,0.0546,0.0636,0.0704,0.0744,0.0862,0.0882,0.0873,0.0801,0.0637,0.0492,0.034,0.021,0.0155,0.0167,0.0143,0.0053,0.0051,0.0057,0.0056,0.0055,0.0054,0.0053,0,0.0314,0.0349,0.0445,0.0495,0.0519,0.0597,0.0669,0.0739,0.0838,0.0959,0.1038,0.1005,0.1003,0.0764,0.0506,0.0271,0.0237,0.0111,0.0055,0.0073,0.0047,0.0047,0.0046,0.0062,0.0061,0.0061,0.006,0,0.0325,0.0351,0.0408,0.0527,0.0605,0.072,0.083,0.0933,0.1054,0.1157,0.1289,0.1291,0.1073,0.0833,0.0489,0.0324,0.0141,0.0093,0.0132,0.0077,0.0074,0.005,0.005,0.0056,0.0057,0.0057,0.0057,0.0057,0.0329,0.0368,0.0457,0.0567,0.0672,0.084,0.0958,0.1097,0.1271,0.1425,0.1437,0.1415,0.1144,0.0689,0.0428,0.0132,0.0137,0.0007,0.001,0.0014,0.0011,0.0005,-0.0026,-0.0026,-0.0026,-0.0026,-0.0026,0,0.036,0.0406,0.0504,0.0662,0.0809,0.0853,0.1077,0.1206,0.1416,0.1483,0.1554,0.1288,0.1024,0.0723,0.0281,0.002,0.0,-0.0059,-0.0027,-0.0022,-0.0018,-0.0022,-0.0067,-0.0068,-0.0068,-0.0069,0,0,0.0382,0.0468,0.0534,0.0768,0.088,0.1097,0.1235,0.1378,0.1467,0.1527,0.1481,0.1407,0.1063,0.0737,0.0406,0.0171,0.0129,0.0118,0.0173,0.0254,0.0261,0.0037,0.0038,0,0,0,0,0]}],[{"header":{"parameterUnit":"m.s-1","parameterCategory":2,"la1":30.2991,"la2":30.254,"lo1":-89.0895,"lo2":-89.0444,"dy":0.0017,"dx":0.0017,"nx":28,"ny":28,"refTime":"2024-10-11T03:00:00:Z","depth":"4","parameterNumber":2,"parameterNumberName":"U-component_of_CURRENTS"},"data":[0,0,0,0,0,0,0,0,0,0,0,0,0,0,0,0,0,0,0,0,0,0,0,0,0,0,0,0,0,0,0,0,0,0,0,0,0,0,0,0,0,0,0,0,0,0,0,0,0,0,0,0,0,0,0,0,0,0,0.1009,0.101,0,0.1097,0.1099,0.11,0.1168,0.1169,0.117,0.117,0.1222,0.1222,0.1223,0,0,0,0,0,0,0,0,0,0,0,0,0,0.0933,0.0934,0.1009,0.101,0.1011,0.1097,0.1099,0.11,0.1168,0.1169,0.117,0.1171,0.1221,0.1222,0.1223,0,0,0,0,0,0,0,0,0,0,0,0,0,0.0988,0.0934,0.1009,0.1055,0.1061,0.1097,0.1099,0.11,0.1168,0.1169,0.117,0.1171,0.1221,0.1222,0.1223,0.1211,0,0,0.1227,0.1227,0,0,0,0,0,0,0,0,0.0985,0.0991,0.1047,0.1052,0.1058,0.1123,0.1091,0.1135,0.1168,0.1127,0.117,0.1171,0.1184,0.1189,0.1204,0.1213,0.1215,0.1227,0.1228,0.1228,0.1228,0,0,0,0,0,0,0,0.0981,0.0987,0.1044,0.1049,0.1055,0.1084,0.1092,0.11,0.1148,0.1131,0.1136,0.1146,0.1187,0.1202,0.1205,0.1216,0.1227,0.1228,0.1229,0.1229,0.1288,0.1288,0,0,0,0,0,0,0.0967,0.0984,0.1041,0.1047,0.1023,0.1084,0.1094,0.1101,0.1149,0.1158,0.1145,0.1148,0.12,0.1204,0.1207,0.1271,0.1228,0.1229,0.123,0.1287,0.1288,0.1289,0,0,0,0,0,0,0.0965,0.0971,0.1038,0.1017,0.1028,0.1084,0.1092,0.1102,0.1149,0.116,0.1169,0.1184,0.1201,0.1206,0.1238,0.127,0.123,0.1231,0.1286,0.1287,0.1288,0.1349,0,0,0,0,0,0,0.0962,0.097,0.098,0.1016,0.1028,0.1078,0.1091,0.1103,0.1151,0.1158,0.1196,0.12,0.1202,0.1237,0.1239,0.1271,0.1232,0.1285,0.1286,0.1288,0.1346,0.1352,0.1358,0,0,0,0,0,0.0959,0.0967,0.098,0.0988,0.1038,0.1078,0.1088,0.1131,0.1152,0.1176,0.1201,0.1201,0.1249,0.1238,0.1241,0.1274,0.1284,0.1286,0.1288,0.1343,0.1351,0.1358,0,0,0,0,0,0,0.0949,0.0976,0.0991,0.101,0.105,0.1091,0.1119,0.1146,0.1187,0.1201,0.1211,0.1217,0.1259,0.1253,0.1241,0.1294,0.1266,0.1269,0.1308,0.1315,0.1321,0.1277,0.1233,0,0,0,0,0,0.0947,0.0958,0.0996,0.1015,0.1036,0.1083,0.1109,0.1141,0.1176,0.1198,0.1219,0.124,0.1264,0.1279,0.1293,0.132,0.1332,0.1342,0.1348,0.1353,0.1318,0.1425,0.1438,0.1295,0.1295,0.1295,0,0,0.0943,0.0967,0.097,0.1014,0.105,0.1076,0.1103,0.1154,0.1176,0.1193,0.1234,0.1264,0.1276,0.1312,0.1329,0.1315,0.1395,0.1355,0.136,0.1321,0.1428,0.1443,0.1455,0.1296,0.1296,0.1296,0,0,0.0943,0.0971,0.0979,0.1014,0.1071,0.1096,0.1116,0.117,0.1199,0.1239,0.126,0.1304,0.1335,0.1352,0.1363,0.1404,0.1426,0.1422,0.1417,0.1523,0.1536,0.1548,0.1564,0.1576,0.1424,0.1424,0.1424,0,0.0939,0.0955,0.0992,0.102,0.1044,0.1104,0.1125,0.116,0.1217,0.1238,0.1258,0.132,0.1348,0.1379,0.1401,0.1418,0.1457,0.1396,0.1534,0.1545,0.1556,0.157,0.1583,0.1427,0.1427,0.1426,0.1426,0,0.0947,0.0965,0.0982,0.1023,0.1057,0.1091,0.1138,0.1178,0.1221,0.1256,0.131,0.1346,0.139,0.1411,0.142,0.15,0.1495,0.1537,0.152,0.1575,0.1584,0.1597,0.1432,0.143,0.1429,0.1429,0,0,0.0915,0.0968,0.0976,0.0991,0.1061,0.1087,0.1129,0.1176,0.1216,0.1267,0.1317,0.1358,0.1404,0.1416,0.1448,0.1513,0.1635,0.1558,0.1563,0.1576,0.1823,0.1687,0.1687,0.1735,0.1738,0.174,0.1793,0,0.0908,0.0935,0.0971,0.1,0.1014,0.1076,0.111,0.1168,0.1229,0.1298,0.1341,0.1411,0.1401,0.1458,0.1522,0.1634,0.1673,0.1611,0.1761,0.1762,0.1642,0.17,0.175,0.1803,0.1805,0.1807,0.1809,0,0.0891,0.0916,0.0933,0.0978,0.0995,0.1031,0.1104,0.115,0.1252,0.1304,0.1371,0.1438,0.1528,0.1537,0.1687,0.1665,0.1729,0.1779,0.1786,0.1635,0.165,0.174,0.1831,0.183,0.1828,0.1826,0.1825,0,0.083,0.0879,0.0886,0.0907,0.0977,0.1009,0.1064,0.1159,0.1213,0.1338,0.1406,0.1504,0.1605,0.1698,0.1797,0.1792,0.195,0.1977,0.1869,0.1858,0.1938,0.1925,0.2055,0.2055,0.2055,0.2055,0.2055,0,0.0782,0.0786,0.0867,0.0876,0.0918,0.0987,0.1062,0.1122,0.124,0.1319,0.1426,0.149,0.1671,0.1779,0.1832,0.1875,0.1994,0.1846,0.1875,0.1957,0.1946,0.1945,0.1932,0.2057,0.2056,0.2056,0.2056,0,0.0686,0.0735,0.0752,0.0843,0.0887,0.0922,0.1067,0.1118,0.1236,0.1349,0.1402,0.1555,0.1694,0.1793,0.1967,0.1925,0.1979,0.195,0.1972,0.2005,0.1793,0.1783,0.1845,0.1841,0.1838,0.1835,0.1832,0,0.0616,0.0625,0.073,0.0759,0.0805,0.0895,0.0964,0.1104,0.1177,0.1356,0.1402,0.1573,0.1663,0.1759,0.1875,0.1935,0.1913,0.1902,0.1863,0.1755,0.1779,0.1773,0.1767,0.1827,0.1826,0.1825,0.1824,0,0.0511,0.0568,0.0608,0.0669,0.0742,0.082,0.0941,0.0998,0.1167,0.1284,0.1385,0.1458,0.1592,0.1699,0.1754,0.1788,0.1904,0.1866,0.1873,0.1836,0.1734,0.1759,0.1758,0.1812,0.1814,0.1815,0.1816,0,0.0447,0.0463,0.0535,0.0588,0.065,0.0713,0.0806,0.0923,0.1026,0.1245,0.1275,0.1429,0.1582,0.162,0.1668,0.17,0.1682,0.1628,0.1647,0.1662,0.1579,0.1421,0.1418,0,0,0,0,0,0.0385,0.0425,0.045,0.0511,0.0546,0.0604,0.0764,0.0869,0.107,0.1109,0.1195,0.1302,0.1392,0.1465,0.1467,0.1579,0.1677,0.1571,0.162,0.1745,0.1759,0.168,0,0,0,0,0,0,0.0354,0.0395,0.0431,0.0417,0.0435,0.0497,0.0604,0.0747,0.0804,0.0997,0.1065,0.1191,0.131,0.1368,0.1425,0.145,0.145,0.1672,0.1668,0.1737,0.175,0.1761,0.1684,0,0,0,0,0]},{"header":{"parameterUnit":"m.s-1","parameterCategory":2,"la1":30.2991,"la2":30.254,"lo1":-89.0895,"lo2":-89.0444,"dy":0.0017,"dx":0.0017,"nx":28,"ny":28,"refTime":"2024-10-11T03:00:00:Z","depth":"4","parameterNumber":3,"parameterNumberName":"V-component_of_CURRENTS"},"data":[0,0,0,0,0,0,0,0,0,0,0,0,0,0,0,0,0,0,0,0,0,0,0,0,0,0,0,0,0,0,0,0,0,0,0,0,0,0,0,0,0,0,0,0,0,0,0,0,0,0,0,0,0,0,0,0,0,0,0.0174,0.0173,0,0.0139,0.0138,0.0138,0.0115,0.0115,0.0115,0.0115,0.0087,0.0086,0.0085,0,0,0,0,0,0,0,0,0,0,0,0,0,0.0182,0.0182,0.0174,0.0173,0.0173,0.0139,0.0138,0.0138,0.0115,0.0115,0.0115,0.0115,0.0087,0.0086,0.0085,0,0,0,0,0,0,0,0,0,0,0,0,0,0.0165,0.0182,0.0174,0.0159,0.0157,0.0139,0.0138,0.0137,0.0115,0.0115,0.0115,0.0115,0.0087,0.0086,0.0085,0.0079,0,0,0.0082,0.0081,0,0,0,0,0,0,0,0,0.0166,0.0164,0.0161,0.016,0.0158,0.0132,0.0131,0.0119,0.0115,0.0129,0.0115,0.0115,0.0104,0.0101,0.0093,0.0078,0.0076,0.0082,0.0081,0.0081,0.008,0,0,0,0,0,0,0,0.0167,0.0165,0.0158,0.0161,0.0159,0.014,0.0138,0.0128,0.0116,0.0128,0.0127,0.0125,0.0103,0.0094,0.0092,0.0076,0.0082,0.0081,0.008,0.008,0.0072,0.0072,0,0,0,0,0,0,0.0176,0.0167,0.016,0.0158,0.0163,0.0141,0.0138,0.014,0.0116,0.0113,0.0125,0.0124,0.0096,0.0093,0.0091,0.0096,0.0081,0.008,0.0079,0.0072,0.0072,0.0073,0,0,0,0,0,0,0.0177,0.0176,0.0161,0.0162,0.0159,0.0141,0.0143,0.0139,0.0131,0.0114,0.0111,0.0122,0.0095,0.0092,0.0085,0.0095,0.0079,0.0078,0.0071,0.0072,0.0072,0.0098,0,0,0,0,0,0,0.0177,0.0176,0.0179,0.0163,0.016,0.0152,0.0143,0.0138,0.0131,0.0129,0.011,0.0107,0.0095,0.0086,0.0084,0.0093,0.0077,0.007,0.0071,0.0072,0.0097,0.01,0.0102,0,0,0,0,0,0.0177,0.0179,0.0179,0.0178,0.0164,0.0153,0.0149,0.0135,0.0131,0.0128,0.0117,0.0108,0.009,0.0086,0.0082,0.0091,0.007,0.0071,0.0072,0.0096,0.0099,0.0102,0,0,0,0,0,0,0.0176,0.0177,0.0176,0.0177,0.0168,0.0149,0.0144,0.0137,0.0125,0.0126,0.0109,0.0105,0.0102,0.0094,0.009,0.0093,0.0081,0.0081,0.01,0.0103,0.0106,0.0112,0.0076,0,0,0,0,0,0.018,0.0187,0.0179,0.0179,0.0176,0.0162,0.0155,0.0149,0.0137,0.0131,0.0119,0.011,0.0103,0.0101,0.009,0.0091,0.0066,0.0097,0.01,0.0102,0.0105,0.0072,0.0072,0.0076,0.0076,0.0076,0,0,0.0179,0.0181,0.0183,0.0181,0.0172,0.0174,0.0158,0.0152,0.0157,0.0131,0.013,0.0115,0.0104,0.0103,0.0102,0.0099,0.0086,0.0103,0.0105,0.0107,0.0073,0.0072,0.0072,0.0077,0.0077,0.0076,0,0,0.0184,0.0183,0.0193,0.0191,0.0188,0.0181,0.0182,0.0169,0.0165,0.0163,0.0147,0.0136,0.0128,0.0118,0.0115,0.0126,0.0098,0.0129,0.0151,0.0119,0.0118,0.0117,0.0078,0.0073,0.0135,0.0135,0.0135,0,0.0185,0.0201,0.0191,0.0201,0.0206,0.0188,0.0201,0.0192,0.0178,0.0178,0.0169,0.0146,0.0136,0.0131,0.014,0.0132,0.0107,0.0139,0.0121,0.012,0.0118,0.0078,0.0073,0.0136,0.0136,0.0136,0.0136,0,0.02,0.0215,0.0219,0.0234,0.0232,0.0239,0.0232,0.0228,0.0224,0.0215,0.0205,0.0179,0.0169,0.0164,0.0159,0.0148,0.0131,0.0123,0.0111,0.0119,0.0077,0.007,0.0138,0.0138,0.0138,0.0137,0,0,0.021,0.023,0.0236,0.0257,0.0256,0.0262,0.0265,0.0268,0.0278,0.0251,0.0256,0.0233,0.0213,0.0208,0.0189,0.0163,0.013,0.0147,0.0145,0.0105,0.0052,0.0052,0.0045,0.0118,0.0118,0.0117,0.0023,0,0.0234,0.0274,0.0271,0.0307,0.0329,0.0315,0.0325,0.0321,0.0311,0.0308,0.0269,0.0268,0.0233,0.0234,0.0198,0.0155,0.0116,0.0156,0.0053,0.005,0.0047,0.0039,0.0115,0.0018,0.0017,0.0016,0.0015,0,0.0261,0.029,0.0336,0.0368,0.0375,0.039,0.0408,0.0414,0.0393,0.0382,0.0351,0.0323,0.0286,0.0257,0.0159,0.0186,0.0123,0.0075,0.007,0.0059,0.0039,0.0011,0.0003,0.0004,0.0005,0.0006,0.0006,0,0.0301,0.0337,0.0386,0.0397,0.0422,0.044,0.0451,0.0442,0.046,0.0433,0.0435,0.0369,0.0355,0.0258,0.0161,0.0163,0.0042,0.0033,-0.004,-0.0041,-0.0026,-0.0024,-0.005,-0.005,-0.005,-0.005,-0.0049,0,0.0343,0.0381,0.0415,0.0445,0.0505,0.0494,0.0546,0.0537,0.0532,0.0553,0.0485,0.0472,0.0358,0.0277,0.0169,0.0046,0.0042,-0.004,-0.0064,-0.0014,-0.0009,-0.0032,-0.0028,-0.0053,-0.0052,-0.0052,-0.0051,0,0.0383,0.0408,0.0467,0.0509,0.0532,0.0575,0.0623,0.065,0.063,0.0651,0.0648,0.0563,0.0453,0.0317,0.0165,0.0075,-0.0053,-0.0102,-0.0044,-0.0062,-0.0121,-0.0115,-0.0187,-0.0188,-0.0189,-0.0189,-0.019,0,0.0412,0.0449,0.0523,0.0569,0.0597,0.066,0.0705,0.0709,0.073,0.0699,0.0707,0.0616,0.0541,0.0317,0.0167,-0.005,-0.008,-0.015,-0.0133,-0.0119,-0.0135,-0.0128,-0.0121,-0.0191,-0.0191,-0.0191,-0.0191,0,0.0458,0.0484,0.0531,0.0621,0.0688,0.0768,0.0821,0.0841,0.0835,0.0827,0.0759,0.0636,0.0508,0.0325,0.0161,0.0002,-0.0103,-0.0157,-0.0156,-0.0141,-0.0124,-0.0137,-0.013,-0.0193,-0.0193,-0.0193,-0.0193,0,0.049,0.0528,0.0582,0.0662,0.0749,0.0825,0.0862,0.0875,0.0893,0.0843,0.082,0.0661,0.0578,0.035,0.0191,0.0045,0.0008,-0.0038,-0.0045,-0.0044,0.0027,0.0072,0.004,0,0,0,0,0,0.0518,0.055,0.0615,0.0699,0.0779,0.0832,0.091,0.093,0.0927,0.0893,0.0854,0.0725,0.0489,0.038,0.0235,0.0175,-0.0019,0.0,-0.0076,-0.0205,-0.0202,-0.0143,0,0,0,0,0,0,0.053,0.059,0.0607,0.0699,0.0757,0.0854,0.0908,0.092,0.0893,0.0865,0.0744,0.0683,0.0456,0.0568,0.0227,0.0181,0.0113,-0.0109,-0.0112,-0.0206,-0.0204,-0.0202,-0.014,0,0,0,0,0]}]]